{"data":{"norad_id":63808,"intl_designator":"2025-092E","name":"STARLINK-34091","alt_names":[],"object_type":"PAYLOAD","status":"ACTIVE","operator":null,"country":"US","launch_date":"2025-05-04","launch_site_code":"AFETR","launch_vehicle":null,"mission":null,"orbit_class":"UNKNOWN","rcs_meters":null,"size_class":null,"mass_kg":null,"dimensions":null,"purposes":["comms"],"wikipedia_slug":null,"has_3d_model":false,"image_url":null,"decayed_at":null,"tle_current":{"epoch":"2026-05-24T22:22:51.737664Z","epoch_age_seconds":80961,"freshness":"FRESH","line1":"1 63808U 25092E   26144.93254326  .00004618  00000+0  17724-3 0  9996","line2":"2 63808  43.0013 102.0841 0001089 262.0703  98.0025 15.27578566 60329","mean_motion":15.27578566,"eccentricity":0.0001089,"inclination_deg":43.0013,"raan_deg":102.0841,"arg_perigee_deg":262.0703,"mean_anomaly_deg":98.0025,"bstar":0.00017724,"rev_number":6032,"period_min":94.266837205675,"perigee_km":482.30620632142,"apogee_km":483.80057358836,"semimajor_km":6861.1903899549,"source":"CELESTRAK","updated_at":"2026-05-25T13:38:20.139867Z"}}}